Погода в Белфорде-Рошу

Бразилия     22°44′06″S   43°25′30″W
темп.,
°C
ветер,
м/с
пор.,
м/с
влажн.,
%
обл.,
%
осадки,
мм/ч
давл.,
гПа
погр.,
м
26 февраля, пт
пт2600:00+22зсз128990 0.4 1012123
03:00+22сз119059 0.5 1011107
06:00+21сз119061 1.1 101281
09:00+26сз127464 1.2 1013473
12:00+27з1172100 0.4 1013497
15:00+29юз1267100 1.6 1011837
18:00+25зюз1282100 1.6 1012279
21:00+23ссз1288100 3.1 1014150
27 февраля, сб
сб2700:00+22сз1193100 5.4 1014121
03:00+22св1192100 7.6 1013166
06:00+22ссз1191100 0.6 1014118
09:00+25ссв1178100 0.6 1016365
12:00+28ссв1163100 0.0 1015799
15:00+30ю0156100 0.1 10131206
18:00+27юз0272100 0.1 1013467
21:00+24сз128290 0.3 101588
28 февраля, вс
вс2800:00+23сз118652 0.1 101597
03:00+22ссз118656 0.1 101384
06:00+22сз118625 0.0 1015105
09:00+26сз126954 0.0 1015487
12:00+31сз224857 0.0 10151336
15:00+32ю124579 0.0 10121890
18:00+27зюз1267100 0.1 1012644
21:00+25ссв1277100 0.5 1014266
1 марта, пн
пн100:00+23ссв128497 0.4 1014169
03:00+22ссз128684 0.4 1013121
06:00+21сз128685 0.0 1014111
09:00+27ссз236584 0.0 1014580
12:00+32ссз2348100 0.0 10141432
15:00+33с234386 0.0 10111781
18:00+28ссв236265 0.0 1011384
21:00+25с127480 0.0 1013171
2 марта, вт
вт200:00+23сз127963 0.0 1014104
03:00+23ссз128248 0.0 1013109
06:00+22сз228283 0.0 1014113
09:00+27ссз246589 0.0 1015618
12:00+32ссз3547100 0.0 10141207
15:00+33ссз3446100 0.0 10121402
18:00+28ссз126219 0.0 1012233
21:00+25сз127029 0.0 101586